CZ-4C DEB, 43263

Orbit data source: Space-Track

CZ-4C DEB, 43263 is space debris in SSO originally from a launch on Sat, 31 Mar 2018 UTC launched from the Taiyaun Space Center, China (TSC). Debris objects in space refer to the collection of defunct objects orbiting the Earth. Examples of debris include non-operational satellites, rocket bodies, and fragments generated from explosions, collisions, or faulty payload assembly.

Loading next visibility...
Identifier
43263, 2018-031E
Orbit
SSO
Country
Flag of CNCN / PRC
Related business
Manufacturer
Unknown
Mission
Spacecraft
Bus & Motor
Unknown
Mass
Unknown
Launch date (UTC)
2018-03-31 (8 years ago)
Launch vehicle
Unknown
Launch site
Taiyaun Space Center, China (TSC)
Object type
Payload
Rocket body
Debris
Shape & HBR
Unknown shape, 0.1 m
Radar Cross Section
Small (<0.1 m²)

Expand to show TLE details & history
Last TLE update: 8 hours ago

TLE from 8 hours ago
0 CZ-4C DEB
1 43263U 18031E   26035.00371855  .00003520  00000-0  46588-3 0  9990
2 43263  97.6932  44.3329 0040222  56.1190 304.3839 14.79973047421663
Epoch: 2026-02-04T00:05Z
TLE epoch observation values (Epoch: 2026-02-04T00:05:21.282Z)
Latitude
-0.00001°
Longitude
-91.18231°
Altitude
616.593 km
Speed
7.559 km/s
True Right ascension
02h 57m 19s
True Declination
0° 00' 00"
Sunlit
Object was in daylight at epoch
Visualization orbit readout
Latitude
Unknown
Longitude
Unknown
Altitude
Unknown
Speed
Unknown
Apparent Right ascension
Unknown
Apparent Declination
Unknown
Sunlit
N/A
Visualization observer readout
Local Sidereal Time
10:04:27
Azimuth
Unknown
Elevation
Unknown
Doppler factor
Unknown
Orbital elements
Apogee altitude
654.615 km
Perigee altitude
598.267 km
Semi-major axis
7,004.578 km
Eccentricity
0.00402
Inclination
97.6932°
RAAN
44.3329°
Arg. of periapsis
56.119°
True anomaly
304.00244°
Mean anomaly
304.3839°
Eccentric anomaly
304.19328°
Mean motion
3.70229 °/min
Orbital period
97.24 mins
BSTAR
0.00046588
Loading maneuver chart data...
Computing Atmospheric mass density...
Loading historical data...
Loading historical data...
Loading historical data...
Loading historical data...
Loading historical data...
Loading historical data...
Loading historical data...

Documentation

Showing up to 5 results
|